Regional Weather Roundup
Issued by NWS

Home | Current Version | Previous Version | Graphics & Text | Print | Product List | Glossary Off
Versions: 1 2 3 4 5 6 7 8 9 10 11 12 13 14 15 16 17 18 19 20 21 22 23 24 25 26 27 28 29 30 31 32 33 34 35 36 37 38 39 40 41 42 43 44 45 46 47 48 49 50

000
ASUS43 KDTX 040910
RWRMI
MICHIGAN HOURLY REGIONAL WEATHER ROUNDUP
NATIONAL WEATHER SERVICE DETROIT/PONTIAC MI
ISSUED BY NATIONAL WEATHER SERVICE GRAND RAPIDS MI
400 AM EST SUN DEC 04 2016

NOTE: "FAIR" INDICATES FEW OR NO CLOUDS BELOW 12,000 FEET WITH NO
SIGNIFICANT WEATHER AND/OR OBSTRUCTION TO VISIBILITY.

MIZ047>049-052>055-059>063-066>070-074>076-081>083-041000-
SOUTHEAST LOWER MICHIGAN

CITY           SKY/WX    TMP DP  RH WIND       PRES   REMARKS
ADRIAN         CLOUDY    33  29  85 CALM      30.26F
ALMA           CLOUDY    34  31  88 CALM      30.25S
ANN ARBOR      CLOUDY    32  30  92 CALM      30.25S
BAD AXE        CLOUDY    34  31  89 SW5       30.24F WCI  30
DETROIT CITY   CLOUDY    36  30  79 CALM      30.26F
DETROIT        CLOUDY    35  29  78 SW5       30.27S WCI  31
FLINT          CLOUDY    34  29  82 CALM      30.25F
GROSSE ILE     CLOUDY    37  26  66 SW3       30.26S
HILLSDALE      CLOUDY    32  27  80 CALM      30.23S
HOWELL         CLOUDY    34  29  83 CALM      30.24F

CITY           SKY/WX    TMP DP  RH WIND       PRES   REMARKS
JACKSON        CLOUDY    33  26  75 SW3       30.24F
LANSING        CLOUDY    34  26  72 S3        30.25F
MASON          CLOUDY    33  29  86 CALM      30.25R
MONROE         CLOUDY    35  29  78 SW3       30.26S
MT. CLEMENS    CLOUDY    35  32  89 CALM      30.23F
PONTIAC        CLOUDY    34  28  79 CALM      30.23F
PORT HOPE        N/A     35  34  96 SW5       30.23F WCI  31
PORT HURON     CLOUDY    34  32  93 CALM      30.25F
TRI CITIES     CLOUDY    34  31  88 CALM      30.26F
YPSILANTI      CLOUDY    36  29  75 SW6       30.26F WCI  31
$$
MIZ043>046-050>051-056>058-064>065-071>073-077>080-041000-
SOUTHWEST LOWER MICHIGAN

CITY           SKY/WX    TMP DP  RH WIND       PRES   REMARKS
BATTLE CREEK   CLOUDY    33  28  81 S5        30.24F WCI  29
BENTON HARBOR  CLOUDY    33  25  72 S3        30.24F
BIG RAPIDS     CLOUDY    33  28  82 CALM      30.22F
COLDWATER      CLOUDY    32  27  83 CALM      30.25F
HOLLAND        CLOUDY    34  27  75 S8        30.23F WCI  27
GRAND RAPIDS   CLOUDY    34  27  75 S5        30.24F WCI  30
KALAMAZOO      CLOUDY    33  26  75 SW5       30.24F WCI  29
MARSHALL       CLOUDY    33  29  85 CALM      30.24F
MOUNT PLEASANT CLOUDY    33  29  86 CALM      30.24S
MUSKEGON       CLOUDY    35  29  78 E5        30.23F WCI  31
STURGIS        CLOUDY    32  27  82 CALM      30.24F
$$
MIZ016>042-041000-
NORTHERN LOWER MICHIGAN

CITY           SKY/WX    TMP DP  RH WIND       PRES   REMARKS
ALPENA         CLOUDY    35  31  85 SW3       30.23F
BEAVER ISLAND  LGT RAIN  35  34  94 SW6       30.21R WCI  30
BELLAIRE       CLOUDY    33  32  96 S5        30.24S WCI  29
CADILLAC       CLOUDY    31  27  84 CALM      30.20S
CHARLEVOIX     CLOUDY    34  34 100 S5        30.25R WCI  30
GAYLORD        CLOUDY    33  29  85 SW3       30.20F
HOUGHTON LAKE  CLOUDY    33  29  85 SW6       30.22F WCI  28
MANISTEE       CLOUDY    32  28  85 SE3       30.23F
OSCODA         CLOUDY    35  33  92 MISG      30.23F
PELLSTON       CLOUDY    34  31  88 S5        30.23F WCI  30
TRAVERSE CITY  CLOUDY    34  30  85 VRB5      30.22F WCI  30
LUDINGTON      CLOUDY    33  29  88 CALM      30.23S
$$
MIZ007>008-015-041000-
EASTERN UPPER MICHIGAN

CITY           SKY/WX    TMP DP  RH WIND       PRES   REMARKS
KINROSS        CLOUDY    31  29  92 E5        30.22F WCI  26
MACKINAC ISLAN CLOUDY    36  31  83 E7        30.21F WCI  30
NEWBERRY       CLOUDY    32  31  96 E6        30.19F WCI  26
S. S. MARIE    CLOUDY    32  26  78 E6        30.22F WCI  26
$$
MIZ004>006-011>014-085-041000-
CENTRAL UPPER MICHIGAN

CITY           SKY/WX    TMP DP  RH WIND       PRES   REMARKS
MANISTIQUE     CLOUDY    32  30  93 W3        30.21R
ESCANABA       CLOUDY    30  24  78 SW3       30.21F
MENOMINEE      CLOUDY    31  24  75 SW3       30.22F
SAWYER-GWINN   CLOUDY    30  28  90 S6        30.16F WCI  24
$$
MIZ001>003-009>011-084-041000-
WESTERN UPPER MICHIGAN

CITY           SKY/WX    TMP DP  RH WIND       PRES   REMARKS
IRON MOUNTAIN  CLOUDY    29  21  72 S8        30.15F WCI  21
HOUGHTON       CLOUDY    30  25  81 CALM      30.13F
COPPER HARBOR    N/A     33  30  88 CALM      30.16F
IRONWOOD       MOCLDY    25  23  92 S3        30.12F
$$

ABBREVIATIONS USED IN REMARKS
   TC - TEMPERATURE IN CELSIUS
  WCI - WIND CHILL INDEX
   HX - HEAT INDEX
  VSB - VISIBILITY





USA.gov is the U.S. government's official web portal to all federal, state and local government web resources and services.